{"data":{"norad_id":52184,"intl_designator":"2022-033AD","name":"NUSAT-26 (M SOMERVILLE)","alt_names":[],"object_type":"PAYLOAD","status":"ACTIVE","operator":null,"country":"ARGN","launch_date":"2022-04-01","launch_site_code":"AFETR","launch_vehicle":null,"mission":null,"orbit_class":"UNKNOWN","rcs_meters":null,"size_class":null,"mass_kg":null,"dimensions":null,"purposes":[],"wikipedia_slug":null,"has_3d_model":false,"image_url":null,"decayed_at":null,"tle_current":{"epoch":"2026-09-20T23:19:09.320160Z","epoch_age_seconds":80560,"freshness":"FRESH","line1":"1 52184U 22033AD  26263.97163565  .00013258  00000+0  27820-3 0  9991","line2":"2 52184  97.2275 342.4919 0003980 248.0546 112.0280 15.45491284119485","mean_motion":15.45491284,"eccentricity":0.000398,"inclination_deg":97.2275,"raan_deg":342.4919,"arg_perigee_deg":248.0546,"mean_anomaly_deg":112.028,"bstar":0.0002782,"rev_number":11948,"period_min":93.17425564983,"perigee_km":427.22530113151,"apogee_km":432.64452637486,"semimajor_km":6808.0719137532,"source":"CELESTRAK","updated_at":"2026-09-21T09:00:08.493341Z"}}}